N70CR MUCM-MUHA

Flight info

Callsign N70CR
Flight time 0h 53m
Altitude 38000
Route DELBA3A HUZAR J2 AMITU DUTAN1A
Aircraft C700/M-SBDGHM1RWXY/LB2

Departure

Time 2026-04-23 02:19
Airport Ignacio Agramonte International Airport (MUCM)

Arrival

Time 2026-04-23 03:13
Airport José Martí International Airport (MUHA)
Time Latitude Longitude Altitude Speed Heading
2026-04-23 02:09 21.41996 -77.85278 403 ft 0 kts 144°
2026-04-23 02:14 21.41991 -77.85280 403 ft 2 kts 202°
2026-04-23 02:14 21.41970 -77.85305 403 ft 7 kts 228°
2026-04-23 02:14 21.41917 -77.85331 404 ft 10 kts 195°
2026-04-23 02:15 21.41827 -77.85353 405 ft 7 kts 202°
2026-04-23 02:15 21.41785 -77.85415 404 ft 14 kts 248°
2026-04-23 02:15 21.41745 -77.85521 404 ft 17 kts 248°
2026-04-23 02:16 21.41707 -77.85625 405 ft 11 kts 248°
2026-04-23 02:16 21.41686 -77.85681 403 ft 6 kts 248°
2026-04-23 02:16 21.41666 -77.85735 406 ft 10 kts 248°
2026-04-23 02:16 21.41636 -77.85818 405 ft 14 kts 249°
2026-04-23 02:17 21.41598 -77.85919 403 ft 13 kts 247°
2026-04-23 02:17 21.41586 -77.86010 403 ft 9 kts 278°
2026-04-23 02:17 21.41583 -77.86063 403 ft 7 kts 253°
2026-04-23 02:17 21.41556 -77.86055 403 ft 7 kts 93°
2026-04-23 02:18 21.41561 -77.86024 403 ft 5 kts 70°
2026-04-23 02:18 21.41567 -77.86006 403 ft 0 kts 69°
2026-04-23 02:18 21.41583 -77.85961 403 ft 30 kts 69°
2026-04-23 02:18 21.41793 -77.85392 406 ft 132 kts 68°
2026-04-23 02:19 21.42207 -77.84248 871 ft 189 kts 68°
2026-04-23 02:19 21.42670 -77.82822 1738 ft 196 kts 67°
2026-04-23 02:19 21.43508 -77.81740 2552 ft 194 kts 41°
2026-04-23 02:19 21.44731 -77.81160 3352 ft 203 kts 11°
2026-04-23 02:20 21.46143 -77.81264 4156 ft 215 kts 352°
2026-04-23 02:20 21.47601 -77.81593 4937 ft 216 kts 353°
2026-04-23 02:20 21.49098 -77.81840 5653 ft 221 kts 354°
2026-04-23 02:20 21.50613 -77.82070 6458 ft 224 kts 353°
2026-04-23 02:21 21.52268 -77.82370 7318 ft 258 kts 350°
2026-04-23 02:21 21.54085 -77.82805 8122 ft 275 kts 339°
2026-04-23 02:21 21.55781 -77.83794 8873 ft 283 kts 324°
2026-04-23 02:21 21.57144 -77.85295 9713 ft 283 kts 306°
2026-04-23 02:22 21.58046 -77.87169 10424 ft 296 kts 288°
2026-04-23 02:22 21.58427 -77.89390 11194 ft 308 kts 274°
2026-04-23 02:22 21.58464 -77.91706 11988 ft 313 kts 270°
2026-04-23 02:22 21.58406 -77.94064 12794 ft 325 kts 269°
2026-04-23 02:23 21.58439 -77.96441 13504 ft 316 kts 273°
2026-04-23 02:23 21.58622 -77.98827 14338 ft 320 kts 275°
2026-04-23 02:23 21.58733 -78.01234 15123 ft 325 kts 271°
2026-04-23 02:23 21.58752 -78.03673 16161 ft 327 kts 271°
2026-04-23 02:24 21.58796 -78.06116 17641 ft 329 kts 272°
2026-04-23 02:24 21.58873 -78.08567 18856 ft 336 kts 273°
2026-04-23 02:24 21.58946 -78.11082 20059 ft 338 kts 272°
2026-04-23 02:24 21.59004 -78.13622 21266 ft 342 kts 272°
2026-04-23 02:25 21.59066 -78.16185 22433 ft 345 kts 272°
2026-04-23 02:25 21.59131 -78.18779 23585 ft 349 kts 272°
2026-04-23 02:25 21.59197 -78.21398 24516 ft 353 kts 272°
2026-04-23 02:25 21.59262 -78.24043 25461 ft 356 kts 271°
2026-04-23 02:26 21.59326 -78.26712 26411 ft 359 kts 271°
2026-04-23 02:26 21.59553 -78.29403 27337 ft 364 kts 278°
2026-04-23 02:26 21.60127 -78.32031 28205 ft 369 kts 285°
2026-04-23 02:26 21.61024 -78.34639 29065 ft 375 kts 289°
2026-04-23 02:27 21.61970 -78.37269 29938 ft 379 kts 288°
2026-04-23 02:27 21.62913 -78.39933 30718 ft 383 kts 288°
2026-04-23 02:27 21.63873 -78.42619 31465 ft 387 kts 288°
2026-04-23 02:27 21.64844 -78.45328 32170 ft 390 kts 287°
2026-04-23 02:28 21.65821 -78.48059 32835 ft 393 kts 287°
2026-04-23 02:28 21.66801 -78.50812 33540 ft 395 kts 287°
2026-04-23 02:28 21.67779 -78.53548 34461 ft 390 kts 287°
2026-04-23 02:28 21.68734 -78.56222 35253 ft 387 kts 287°
2026-04-23 02:29 21.69692 -78.58913 36051 ft 384 kts 287°
2026-04-23 02:29 21.70642 -78.61583 36793 ft 381 kts 286°
2026-04-23 02:29 21.71587 -78.64238 37484 ft 379 kts 286°
2026-04-23 02:29 21.72526 -78.66878 38071 ft 379 kts 286°
2026-04-23 02:30 21.73477 -78.69566 38092 ft 391 kts 286°
2026-04-23 02:30 21.74460 -78.72337 38092 ft 403 kts 287°
2026-04-23 02:30 21.75474 -78.75189 38099 ft 414 kts 287°
2026-04-23 02:31 21.77539 -78.81001 38106 ft 421 kts 287°
2026-04-23 02:31 21.79626 -78.86891 38108 ft 422 kts 287°
2026-04-23 02:32 21.81711 -78.92786 38107 ft 421 kts 287°
2026-04-23 02:32 21.83792 -78.98676 38112 ft 421 kts 287°
2026-04-23 02:33 21.85854 -79.04521 38113 ft 421 kts 287°
2026-04-23 02:33 21.87929 -79.10406 38114 ft 420 kts 287°
2026-04-23 02:34 21.89972 -79.16302 38112 ft 420 kts 286°
2026-04-23 02:34 21.91982 -79.22205 38119 ft 420 kts 286°
2026-04-23 02:35 21.94009 -79.28102 38118 ft 420 kts 286°
2026-04-23 02:35 21.96009 -79.33965 38119 ft 420 kts 286°
2026-04-23 02:36 21.98025 -79.39862 38123 ft 419 kts 286°
2026-04-23 02:36 22.00035 -79.45759 38122 ft 419 kts 286°
2026-04-23 02:37 22.02044 -79.51657 38125 ft 419 kts 286°
2026-04-23 02:37 22.04037 -79.57519 38120 ft 419 kts 286°
2026-04-23 02:38 22.06041 -79.63420 38125 ft 419 kts 286°
2026-04-23 02:38 22.08043 -79.69323 38123 ft 419 kts 286°
2026-04-23 02:39 22.09987 -79.75248 38124 ft 418 kts 283°
2026-04-23 02:39 22.11427 -79.81304 38124 ft 417 kts 282°
2026-04-23 02:40 22.12882 -79.87316 38127 ft 417 kts 281°
2026-04-23 02:40 22.14319 -79.93380 38123 ft 417 kts 281°
2026-04-23 02:41 22.15768 -79.99439 38126 ft 417 kts 281°
2026-04-23 02:41 22.17205 -80.05495 38122 ft 417 kts 281°
2026-04-23 02:42 22.18635 -80.11510 38121 ft 417 kts 281°
2026-04-23 02:42 22.20072 -80.17575 38119 ft 418 kts 281°
2026-04-23 02:43 22.21507 -80.23639 38114 ft 414 kts 281°
2026-04-23 02:43 22.22919 -80.29618 38108 ft 410 kts 281°
2026-04-23 02:44 22.24315 -80.35544 38104 ft 410 kts 281°
2026-04-23 02:44 22.25720 -80.41514 38101 ft 410 kts 281°
2026-04-23 02:45 22.27123 -80.47485 38105 ft 410 kts 281°
2026-04-23 02:45 22.28523 -80.53454 38101 ft 410 kts 281°
2026-04-23 02:46 22.29911 -80.59386 38104 ft 410 kts 281°
2026-04-23 02:46 22.31298 -80.65309 38109 ft 404 kts 281°
2026-04-23 02:47 22.32667 -80.71188 38087 ft 404 kts 281°
2026-04-23 02:47 22.33356 -80.74143 37464 ft 406 kts 281°
2026-04-23 02:47 22.34040 -80.77080 36706 ft 400 kts 281°
2026-04-23 02:47 22.34713 -80.79969 35965 ft 393 kts 281°
2026-04-23 02:48 22.35365 -80.82781 35262 ft 389 kts 281°
2026-04-23 02:48 22.36023 -80.85614 34571 ft 389 kts 280°
2026-04-23 02:48 22.36684 -80.88465 33863 ft 394 kts 280°
2026-04-23 02:48 22.37354 -80.91363 33104 ft 400 kts 281°
2026-04-23 02:49 22.38033 -80.94291 32361 ft 404 kts 281°
2026-04-23 02:49 22.38719 -80.97252 31636 ft 409 kts 281°
2026-04-23 02:49 22.39411 -81.00248 30936 ft 413 kts 281°
2026-04-23 02:49 22.40111 -81.03277 30251 ft 417 kts 281°
2026-04-23 02:50 22.40806 -81.06287 29470 ft 419 kts 281°
2026-04-23 02:50 22.41509 -81.09332 28695 ft 416 kts 281°
2026-04-23 02:50 22.42206 -81.12358 27791 ft 414 kts 282°
2026-04-23 02:50 22.42897 -81.15363 26859 ft 410 kts 282°
2026-04-23 02:51 22.43580 -81.18333 25956 ft 405 kts 282°
2026-04-23 02:51 22.44255 -81.21267 25081 ft 400 kts 282°
2026-04-23 02:51 22.44919 -81.24167 24137 ft 393 kts 282°
2026-04-23 02:51 22.45575 -81.27027 22722 ft 391 kts 283°
2026-04-23 02:52 22.46225 -81.29866 21353 ft 387 kts 283°
2026-04-23 02:52 22.46859 -81.32633 20315 ft 379 kts 283°
2026-04-23 02:52 22.47484 -81.35364 19497 ft 372 kts 283°
2026-04-23 02:52 22.48103 -81.38076 18704 ft 372 kts 284°
2026-04-23 02:53 22.48723 -81.40788 17840 ft 371 kts 284°
2026-04-23 02:53 22.49339 -81.43493 16962 ft 370 kts 284°
2026-04-23 02:53 22.49954 -81.46183 16102 ft 366 kts 284°
2026-04-23 02:53 22.50551 -81.48807 15262 ft 354 kts 284°
2026-04-23 02:54 22.51131 -81.51357 14442 ft 345 kts 284°
2026-04-23 02:54 22.51691 -81.53819 13622 ft 338 kts 284°
2026-04-23 02:54 22.52248 -81.56265 12737 ft 332 kts 284°
2026-04-23 02:54 22.52794 -81.58674 11874 ft 328 kts 284°
2026-04-23 02:55 22.53334 -81.61051 11036 ft 323 kts 284°
2026-04-23 02:55 22.53867 -81.63402 10219 ft 320 kts 284°
2026-04-23 02:55 22.54394 -81.65726 9352 ft 317 kts 284°
2026-04-23 02:55 22.54916 -81.68028 8477 ft 314 kts 284°
2026-04-23 02:56 22.55430 -81.70317 7769 ft 309 kts 284°
2026-04-23 02:56 22.55925 -81.72497 7315 ft 297 kts 284°
2026-04-23 02:56 22.56405 -81.74630 6862 ft 287 kts 284°
2026-04-23 02:56 22.56876 -81.76704 6403 ft 280 kts 284°
2026-04-23 02:57 22.57335 -81.78733 5923 ft 276 kts 284°
2026-04-23 02:57 22.57786 -81.80738 5450 ft 273 kts 284°
2026-04-23 02:57 22.58235 -81.82727 5128 ft 270 kts 284°
2026-04-23 02:57 22.58679 -81.84702 4882 ft 272 kts 283°
2026-04-23 02:58 22.59127 -81.86693 4632 ft 273 kts 284°
2026-04-23 02:58 22.59579 -81.88698 4377 ft 275 kts 284°
2026-04-23 02:58 22.60027 -81.90689 4138 ft 276 kts 284°
2026-04-23 02:58 22.60478 -81.92696 4114 ft 275 kts 284°
2026-04-23 02:59 22.60929 -81.94710 4110 ft 275 kts 284°
2026-04-23 02:59 22.61382 -81.96730 4112 ft 277 kts 284°
2026-04-23 02:59 22.61837 -81.98755 4104 ft 278 kts 284°
2026-04-23 02:59 22.62293 -82.00785 4106 ft 277 kts 284°
2026-04-23 03:00 22.62749 -82.02812 4107 ft 278 kts 284°
2026-04-23 03:00 22.63209 -82.04849 4110 ft 278 kts 284°
2026-04-23 03:00 22.63660 -82.06885 4106 ft 278 kts 283°
2026-04-23 03:00 22.64099 -82.08894 4110 ft 278 kts 283°
2026-04-23 03:01 22.64558 -82.10930 4103 ft 279 kts 284°
2026-04-23 03:01 22.65015 -82.12956 4106 ft 277 kts 284°
2026-04-23 03:01 22.65454 -82.14927 4098 ft 278 kts 284°
2026-04-23 03:01 22.65910 -82.16958 4109 ft 278 kts 283°
2026-04-23 03:02 22.66353 -82.18993 4107 ft 278 kts 283°
2026-04-23 03:02 22.66817 -82.21033 4003 ft 281 kts 284°
2026-04-23 03:02 22.67343 -82.23054 3844 ft 278 kts 292°
2026-04-23 03:02 22.68181 -82.24926 3716 ft 276 kts 296°
2026-04-23 03:03 22.68976 -82.26796 3591 ft 278 kts 294°
2026-04-23 03:03 22.69771 -82.28706 3474 ft 278 kts 295°
2026-04-23 03:03 22.70584 -82.30603 3353 ft 278 kts 295°
2026-04-23 03:03 22.71401 -82.32499 3235 ft 278 kts 295°
2026-04-23 03:04 22.72207 -82.34402 3118 ft 277 kts 295°
2026-04-23 03:04 22.73013 -82.36285 3112 ft 276 kts 296°
2026-04-23 03:04 22.73825 -82.38175 3111 ft 277 kts 295°
2026-04-23 03:04 22.74620 -82.40046 3108 ft 277 kts 295°
2026-04-23 03:05 22.75426 -82.41934 3107 ft 276 kts 295°
2026-04-23 03:05 22.76237 -82.43826 3115 ft 277 kts 295°
2026-04-23 03:05 22.77036 -82.45718 3112 ft 272 kts 296°
2026-04-23 03:05 22.77801 -82.47512 3116 ft 253 kts 296°
2026-04-23 03:06 22.78517 -82.49194 3111 ft 238 kts 296°
2026-04-23 03:06 22.79218 -82.50780 3106 ft 229 kts 300°
2026-04-23 03:06 22.80248 -82.52084 3105 ft 230 kts 322°
2026-04-23 03:06 22.81096 -82.52768 2965 ft 234 kts 327°
2026-04-23 03:07 22.82850 -82.54111 2628 ft 227 kts 326°
2026-04-23 03:07 22.84116 -82.55082 2376 ft 219 kts 330°
2026-04-23 03:07 22.85472 -82.55707 2126 ft 206 kts 353°
2026-04-23 03:07 22.86822 -82.55843 2108 ft 185 kts
2026-04-23 03:08 22.88019 -82.55604 2115 ft 167 kts 23°
2026-04-23 03:08 22.89037 -82.55103 2112 ft 157 kts 37°
2026-04-23 03:08 22.89879 -82.54392 2116 ft 153 kts 48°
2026-04-23 03:08 22.90555 -82.53500 2119 ft 153 kts 60°
2026-04-23 03:09 22.91160 -82.52567 2116 ft 153 kts 57°
2026-04-23 03:09 22.91769 -82.51677 2129 ft 144 kts 57°
2026-04-23 03:09 22.92354 -82.50800 2044 ft 144 kts 59°
2026-04-23 03:09 22.92908 -82.49963 1886 ft 129 kts 59°
2026-04-23 03:10 22.93425 -82.49188 1709 ft 120 kts 58°
2026-04-23 03:10 22.93907 -82.48449 1540 ft 122 kts 58°
2026-04-23 03:10 22.94242 -82.47964 1441 ft 120 kts 58°
2026-04-23 03:10 22.94715 -82.47242 1275 ft 113 kts 58°
2026-04-23 03:11 22.95182 -82.46546 1122 ft 113 kts 57°
2026-04-23 03:11 22.95796 -82.45628 938 ft 115 kts 58°
2026-04-23 03:11 22.96283 -82.44886 776 ft 123 kts 56°
2026-04-23 03:11 22.96768 -82.44141 606 ft 118 kts 57°
2026-04-23 03:12 22.97079 -82.43682 491 ft 113 kts 56°
2026-04-23 03:12 22.97549 -82.42971 370 ft 117 kts 56°
2026-04-23 03:12 22.98030 -82.42259 239 ft 113 kts 56°
2026-04-23 03:12 22.98417 -82.41666 211 ft 75 kts 55°
2026-04-23 03:13 22.98631 -82.41334 212 ft 32 kts 54°
2026-04-23 03:13 22.98720 -82.41199 215 ft 21 kts 55°
2026-04-23 03:13 22.98797 -82.41104 211 ft 13 kts 22°
2026-04-23 03:13 22.98843 -82.41093 211 ft 4 kts
2026-04-23 03:14 22.98889 -82.41083 210 ft 9 kts 11°
2026-04-23 03:14 22.98936 -82.41076 216 ft 6 kts
2026-04-23 03:14 22.98970 -82.41070 218 ft 6 kts
2026-04-23 03:14 22.98996 -82.41096 211 ft 0 kts 274°
2026-04-23 03:15 22.98984 -82.41121 211 ft 6 kts 234°
2026-04-23 03:15 22.98951 -82.41172 211 ft 11 kts 234°
2026-04-23 03:15 22.98901 -82.41248 214 ft 8 kts 233°
2026-04-23 03:15 22.98861 -82.41309 213 ft 12 kts 234°
2026-04-23 03:16 22.98803 -82.41396 213 ft 10 kts 232°
2026-04-23 03:16 22.98776 -82.41437 214 ft 7 kts 234°
2026-04-23 03:16 22.98718 -82.41523 215 ft 8 kts 234°
2026-04-23 03:17 22.98680 -82.41581 211 ft 9 kts 234°
2026-04-23 03:17 22.98653 -82.41622 213 ft 7 kts 234°
2026-04-23 03:17 22.98623 -82.41666 211 ft 2 kts 235°
2026-04-23 03:17 22.98603 -82.41697 210 ft 8 kts 235°
2026-04-23 03:18 22.98590 -82.41716 210 ft 1 kts 233°
2026-04-23 03:18 22.98571 -82.41744 214 ft 7 kts 233°
2026-04-23 03:18 22.98532 -82.41803 214 ft 12 kts 234°
2026-04-23 03:18 22.98498 -82.41854 212 ft 8 kts 234°
2026-04-23 03:19 22.98469 -82.41898 214 ft 6 kts 233°
2026-04-23 03:19 22.98433 -82.41952 215 ft 11 kts 234°
2026-04-23 03:19 22.98409 -82.41990 210 ft 6 kts 233°
2026-04-23 03:19 22.98381 -82.42031 212 ft 0 kts 235°
2026-04-23 03:20 22.98368 -82.42052 215 ft 0 kts 234°
2026-04-23 03:20 22.98355 -82.42070 213 ft 0 kts 235°
2026-04-23 03:22 22.98350 -82.42079 210 ft 5 kts 235°
2026-04-23 03:22 22.98340 -82.42093 213 ft 0 kts 234°
2026-04-23 03:22 22.98336 -82.42099 211 ft 2 kts 234°
2026-04-23 03:22 22.98320 -82.42128 211 ft 6 kts 253°
2026-04-23 03:23 22.98317 -82.42162 215 ft 0 kts 216°
2026-04-23 03:23 22.98316 -82.42162 215 ft 0 kts 203°
2026-04-23 03:23 22.98315 -82.42161 215 ft 0 kts 181°
2026-04-23 03:24 22.98312 -82.42160 214 ft 0 kts 170°
2026-04-23 03:27 22.98310 -82.42155 213 ft 2 kts 101°
2026-04-23 03:27 22.98319 -82.42154 213 ft 3 kts 339°
2026-04-23 03:27 22.98332 -82.42156 214 ft 5 kts 10°
2026-04-23 03:27 22.98358 -82.42118 212 ft 9 kts 55°
2026-04-23 03:28 22.98380 -82.42101 215 ft 6 kts 21°
2026-04-23 03:28 22.98395 -82.42107 210 ft 5 kts 328°
2026-04-23 03:28 22.98399 -82.42125 214 ft 0 kts 268°
2026-04-23 03:35 22.98396 -82.42137 210 ft 2 kts 242°
2026-04-23 03:35 22.98390 -82.42152 215 ft 1 kts 239°
2026-04-23 03:35 22.98384 -82.42160 212 ft 1 kts 228°
2026-04-23 03:36 22.98378 -82.42162 214 ft 1 kts 191°
2026-04-23 03:36 22.98369 -82.42162 213 ft 1 kts 165°
2026-04-23 03:36 22.98365 -82.42158 212 ft 0 kts 141°